User: anonymous   Login
Location: Unspecified
(0.0000°N, 0.0000°E)
Time: 09:53:04
(UTC+02:00)
Language:

Delta 2 Rocket - Orbit

View from above orbital plane
View from above orbital plane
View from above satellite
View from above satellite

Ground track
Ground track

The orbit data is extracted from the following two-line orbital elements,

1 20453U 90008B   15183.81009628  .00004532  00000-0  27404-3 0  9997
2 20453 035.6267 102.7202 0304680 353.0654 006.5900 14.78962388342056
Epoch (UTC): 02 July 2015 19:26:32
Eccentricity: 0.0304680
inclination: 35.6267°
perigee height: 419 km
apogee height: 846 km
right ascension of ascending node: 102.7202°
argument of perigee: 353.0654°
revolutions per day: 14.78962388
mean anomaly at epoch: 6.5900°
orbit number at epoch: 34205

The dashed part of the orbit path shows where the satellite is in the earth's shadow,  

DLR